SCP
0 0 0 1 1 1 0 1 1 0 0 0 0 0 0 0 0 0 0 0 0 0 0 0 0 0 0 0 0 0 0 0
0 0 0 1 1 1 1 1 1 1 0 0 0 0 0 0 0 0 0 0 0 0 0 0 0 0 0 0 0 0 0 0
0 0 0 1 1 1 2 2 2 2 2 0 0 0 0 0 0 0 0 0 0 0 0 0 0 0 0 0 0 0 0 0
0 0 0 1 2 2 2 3 3 2 2 1 1 1 0 0 0 0 0 0 0 0 0 0 0 0 0 0 0 0 1 1
0 0 0 0 2 4 5 5 4 4 3 2 1 0 0 0 0 1 0 0 1 0 0 0 0 0 1 1 1 0 0 0
0 0 0 0 0 7 5 3 2 3 3 2 1 0 0 0 0 0 0 0 0 0 0 0 0 1 0 0 0 0 1 0
0 0 0 0 1 5 3 3 2 2 3 2 1 2 0 0 0 0 0 0 0 0 0 0 1 0 1 1 0 1 1 0
0 0 0 0 0 9 6 5 4 4 4 4 1 1 0 0 0 0 0 0 0 0 0 2 1 1 1 0 1 0 0 0
0 0 0 0 0 10 7 4 6 6 4 2 1 1 1 0 0 1 1 0 0 1 2 2 1 1 1 1 1 0 0 0
0 0 0 0 2 10 8 4 6 7 4 3 2 2 1 1 0 2 1 1 1 1 2 1 1 2 1 1 0 0 0 0
0 0 0 0 3 10 10 5 6 7 4 3 4 2 2 1 1 1 1 1 1 2 2 2 3 2 2 1 0 0 0 0
0 0 0 0 2 5 6 5 7 7 7 3 4 2 1 1 1 1 2 1 1 4 3 2 1 1 1 0 0 0 0 0
0 0 0 0 3 5 5 5 7 6 5 3 4 1 1 1 1 3 2 3 3 3 2 1 1 0 0 0 0 0 0 0
0 0 0 0 4 5 6 5 5 4 5 4 3 3 2 1 3 3 4 4 2 2 1 0 0 0 0 0 0 0 0 0
0 0 0 0 2 3 4 4 5 4 4 6 3 2 3 5 7 4 1 1 1 1 0 0 0 0 0 0 0 0 0 0
0 0 0 0 1 3 3 4 4 4 4 5 3 5 6 6 3 2 1 1 1 0 0 0 0 0 0 0 0 0 0 0
0 0 0 0 1 2 4 3 4 5 4 4 3 7 4 2 2 2 1 1 0 0 0 0 0 0 0 0 0 0 0 0
0 0 0 0 2 2 3 4 6 5 5 5 8 4 2 2 2 2 1 1 0 0 0 0 0 0 0 0 0 0 0 0
0 0 0 0 2 2 3 4 4 7 6 7 4 3 2 1 1 1 1 0 0 0 0 0 0 0 0 0 0 0 0 0
0 0 0 0 2 3 3 4 5 8 6 4 3 3 2 1 1 1 1 0 0 0 0 0 0 0 0 0 0 0 0 0
Wind_Speed_500mb
39 42 47 57 57 57 56 59 58 55 47 50 43 42 41 41 42 45 35 30 28 30 25 28 23 17 10 7 6 7 1 7
43 45 47 55 60 59 57 59 60 61 50 46 43 40 39 37 39 45 37 31 32 28 21 20 18 16 14 8 7 13 7 5
44 44 46 53 60 60 62 62 63 63 55 46 46 42 41 37 39 42 36 33 32 30 24 21 19 16 17 14 14 8 6 5
47 46 45 51 60 64 65 62 62 62 55 51 50 45 40 39 37 39 39 33 32 29 27 24 18 18 16 13 12 9 6 9
62 54 46 46 50 68 74 69 66 65 57 54 47 44 40 40 36 41 39 37 37 30 26 24 20 19 17 14 15 10 6 6
68 69 62 55 51 66 79 67 63 67 62 55 46 42 39 37 36 35 40 37 33 36 27 24 22 18 14 15 9 9 5 7
79 80 73 67 61 59 73 74 73 71 66 52 47 43 40 37 36 33 39 37 34 33 27 25 30 17 18 12 9 7 10 8
79 75 79 76 72 72 71 73 69 77 65 57 47 43 41 38 37 35 44 38 39 39 29 29 29 22 18 10 9 6 7 11
77 76 71 70 76 79 82 78 81 82 71 64 57 52 46 41 37 40 38 37 40 41 31 32 24 17 13 8 3 9 5 10
60 74 73 76 77 81 86 80 90 92 78 67 57 53 45 42 39 44 39 40 45 47 28 27 25 19 15 4 3 2 6 11
61 64 75 75 72 79 94 86 97 98 79 68 61 53 47 47 44 41 38 41 46 35 30 29 29 21 11 2 2 2 3 14
65 59 73 72 78 74 86 87 94 101 86 76 73 69 63 54 47 39 40 38 41 43 41 35 30 20 11 10 17 18 6 2
72 64 66 73 74 74 80 88 89 96 91 79 77 63 55 51 46 50 37 41 45 52 47 36 24 15 7 11 9 29 5 4
76 70 57 73 75 81 91 87 90 91 100 80 76 68 61 58 55 51 55 60 56 49 40 32 27 14 5 3 14 15 11 12
85 76 77 73 77 75 86 93 93 84 100 79 79 74 64 67 74 72 68 63 56 44 41 35 31 30 25 15 14 13 14 14
82 74 71 77 79 76 85 92 92 88 88 79 76 70 64 80 75 65 65 58 53 50 42 30 24 30 20 17 19 17 19 15
77 75 74 75 79 78 84 91 89 86 85 82 77 73 76 74 58 55 58 56 55 43 34 30 30 36 30 24 19 19 15 13
74 70 73 73 78 75 77 86 92 88 87 83 80 87 65 61 55 60 57 58 48 45 39 42 41 31 26 21 17 15 12 11
48 56 53 67 76 75 70 80 90 88 89 93 92 78 62 58 59 56 61 61 58 51 53 43 36 35 27 23 14 7 6 8
49 56 55 60 73 79 71 69 84 89 98 92 88 72 66 62 60 65 69 64 59 58 54 46 34 28 24 17 12 4 4 4
Wind_Direction_500mb
219 211 205 198 196 194 192 190 185 181 184 187 182 183 186 186 187 186 172 187 179 178 205 199 200 195 194 197 158 75 348 188
219 219 210 204 198 196 193 191 187 180 187 184 184 183 187 184 186 185 177 184 190 184 197 193 190 205 189 191 213 199 178 182
229 222 217 207 201 197 193 192 187 184 187 185 186 187 190 188 190 186 188 185 196 187 194 190 195 202 204 193 198 177 209 227
233 224 222 211 202 197 195 194 192 187 187 186 186 188 193 188 192 193 189 183 201 191 193 186 191 193 191 185 197 207 219 245
231 229 221 219 209 196 199 195 195 191 188 186 187 191 192 190 193 198 186 179 211 185 192 185 182 186 181 196 209 226 220 251
234 225 222 220 222 200 198 198 195 193 189 189 190 195 192 192 192 195 187 181 200 179 190 181 188 192 190 202 214 227 252 284
237 233 227 222 213 206 195 198 204 198 190 194 190 198 188 192 192 194 186 186 191 176 186 183 193 186 198 195 217 229 266 278
236 231 227 220 212 207 203 203 203 195 192 189 192 196 189 191 191 193 195 185 190 169 179 196 186 192 185 186 193 253 250 278
231 227 225 217 208 196 207 199 192 190 190 189 190 191 188 189 189 194 203 185 191 172 179 196 177 177 171 187 243 292 320 320
234 220 215 216 202 195 205 203 187 192 187 188 187 186 187 185 183 187 184 191 187 177 191 182 167 168 172 203 290 281 322 337
236 223 216 207 205 190 203 203 187 192 184 181 181 182 182 181 184 184 179 191 186 168 185 181 168 151 151 152 78 78 5 305
239 223 216 208 201 197 203 202 189 192 178 177 179 181 180 182 181 177 176 174 173 182 188 186 175 169 143 87 25 348 298 281
232 229 209 212 201 198 201 197 191 191 180 181 182 181 179 175 174 185 175 170 179 191 193 176 173 152 50 28 1 299 262 59
227 220 215 207 195 199 201 196 192 194 179 180 182 179 174 170 172 169 177 178 185 186 171 177 177 184 119 265 296 261 252 272
221 216 208 205 197 197 197 196 193 191 182 177 182 177 173 170 180 178 182 186 185 172 173 176 180 176 163 182 265 269 273 260
215 213 207 201 199 191 195 189 190 185 181 175 178 168 170 183 188 191 192 183 172 170 172 175 178 179 205 233 217 247 277 281
214 210 205 203 195 192 194 190 185 182 176 174 172 172 184 185 186 187 182 177 171 184 195 179 193 172 197 205 211 235 252 279
216 203 203 203 188 190 187 189 184 179 176 172 168 185 180 182 177 179 178 174 173 169 174 178 180 186 190 201 217 231 250 288
193 197 199 198 182 183 190 187 185 175 173 172 177 178 171 167 172 173 174 169 170 172 175 180 177 191 195 210 221 227 272 291
199 193 186 199 178 174 182 183 182 172 172 176 175 171 161 167 164 170 169 165 166 172 172 177 178 185 179 182 169 169 229 287
Wind_Speed_850mb
39 42 47 57 57 57 56 59 58 55 47 50 43 42 41 41 42 45 35 30 28 30 25 28 23 17 10 7 6 7 1 7
43 45 47 55 60 59 57 59 60 61 50 46 43 40 39 37 39 45 37 31 32 28 21 20 18 16 14 8 7 13 7 5
44 44 46 53 60 60 62 62 63 63 55 46 46 42 41 37 39 42 36 33 32 30 24 21 19 16 17 14 14 8 6 5
47 46 45 51 60 64 65 62 62 62 55 51 50 45 40 39 37 39 39 33 32 29 27 24 18 18 16 13 12 9 6 9
62 54 46 46 50 68 74 69 66 65 57 54 47 44 40 40 36 41 39 37 37 30 26 24 20 19 17 14 15 10 6 6
68 69 62 55 51 66 79 67 63 67 62 55 46 42 39 37 36 35 40 37 33 36 27 24 22 18 14 15 9 9 5 7
79 80 73 67 61 59 73 74 73 71 66 52 47 43 40 37 36 33 39 37 34 33 27 25 30 17 18 12 9 7 10 8
79 75 79 76 72 72 71 73 69 77 65 57 47 43 41 38 37 35 44 38 39 39 29 29 29 22 18 10 9 6 7 11
77 76 71 70 76 79 82 78 81 82 71 64 57 52 46 41 37 40 38 37 40 41 31 32 24 17 13 8 3 9 5 10
60 74 73 76 77 81 86 80 90 92 78 67 57 53 45 42 39 44 39 40 45 47 28 27 25 19 15 4 3 2 6 11
61 64 75 75 72 79 94 86 97 98 79 68 61 53 47 47 44 41 38 41 46 35 30 29 29 21 11 2 2 2 3 14
65 59 73 72 78 74 86 87 94 101 86 76 73 69 63 54 47 39 40 38 41 43 41 35 30 20 11 10 17 18 6 2
72 64 66 73 74 74 80 88 89 96 91 79 77 63 55 51 46 50 37 41 45 52 47 36 24 15 7 11 9 29 5 4
76 70 57 73 75 81 91 87 90 91 100 80 76 68 61 58 55 51 55 60 56 49 40 32 27 14 5 3 14 15 11 12
85 76 77 73 77 75 86 93 93 84 100 79 79 74 64 67 74 72 68 63 56 44 41 35 31 30 25 15 14 13 14 14
82 74 71 77 79 76 85 92 92 88 88 79 76 70 64 80 75 65 65 58 53 50 42 30 24 30 20 17 19 17 19 15
77 75 74 75 79 78 84 91 89 86 85 82 77 73 76 74 58 55 58 56 55 43 34 30 30 36 30 24 19 19 15 13
74 70 73 73 78 75 77 86 92 88 87 83 80 87 65 61 55 60 57 58 48 45 39 42 41 31 26 21 17 15 12 11
48 56 53 67 76 75 70 80 90 88 89 93 92 78 62 58 59 56 61 61 58 51 53 43 36 35 27 23 14 7 6 8
49 56 55 60 73 79 71 69 84 89 98 92 88 72 66 62 60 65 69 64 59 58 54 46 34 28 24 17 12 4 4 4
Wind_Direction_850mb
219 211 205 198 196 194 192 190 185 181 184 187 182 183 186 186 187 186 172 187 179 178 205 199 200 195 194 197 158 75 348 188
219 219 210 204 198 196 193 191 187 180 187 184 184 183 187 184 186 185 177 184 190 184 197 193 190 205 189 191 213 199 178 182
229 222 217 207 201 197 193 192 187 184 187 185 186 187 190 188 190 186 188 185 196 187 194 190 195 202 204 193 198 177 209 227
233 224 222 211 202 197 195 194 192 187 187 186 186 188 193 188 192 193 189 183 201 191 193 186 191 193 191 185 197 207 219 245
231 229 221 219 209 196 199 195 195 191 188 186 187 191 192 190 193 198 186 179 211 185 192 185 182 186 181 196 209 226 220 251
234 225 222 220 222 200 198 198 195 193 189 189 190 195 192 192 192 195 187 181 200 179 190 181 188 192 190 202 214 227 252 284
237 233 227 222 213 206 195 198 204 198 190 194 190 198 188 192 192 194 186 186 191 176 186 183 193 186 198 195 217 229 266 278
236 231 227 220 212 207 203 203 203 195 192 189 192 196 189 191 191 193 195 185 190 169 179 196 186 192 185 186 193 253 250 278
231 227 225 217 208 196 207 199 192 190 190 189 190 191 188 189 189 194 203 185 191 172 179 196 177 177 171 187 243 292 320 320
234 220 215 216 202 195 205 203 187 192 187 188 187 186 187 185 183 187 184 191 187 177 191 182 167 168 172 203 290 281 322 337
236 223 216 207 205 190 203 203 187 192 184 181 181 182 182 181 184 184 179 191 186 168 185 181 168 151 151 152 78 78 5 305
239 223 216 208 201 197 203 202 189 192 178 177 179 181 180 182 181 177 176 174 173 182 188 186 175 169 143 87 25 348 298 281
232 229 209 212 201 198 201 197 191 191 180 181 182 181 179 175 174 185 175 170 179 191 193 176 173 152 50 28 1 299 262 59
227 220 215 207 195 199 201 196 192 194 179 180 182 179 174 170 172 169 177 178 185 186 171 177 177 184 119 265 296 261 252 272
221 216 208 205 197 197 197 196 193 191 182 177 182 177 173 170 180 178 182 186 185 172 173 176 180 176 163 182 265 269 273 260
215 213 207 201 199 191 195 189 190 185 181 175 178 168 170 183 188 191 192 183 172 170 172 175 178 179 205 233 217 247 277 281
214 210 205 203 195 192 194 190 185 182 176 174 172 172 184 185 186 187 182 177 171 184 195 179 193 172 197 205 211 235 252 279
216 203 203 203 188 190 187 189 184 179 176 172 168 185 180 182 177 179 178 174 173 169 174 178 180 186 190 201 217 231 250 288
193 197 199 198 182 183 190 187 185 175 173 172 177 178 171 167 172 173 174 169 170 172 175 180 177 191 195 210 221 227 272 291
199 193 186 199 178 174 182 183 182 172 172 176 175 171 161 167 164 170 169 165 166 172 172 177 178 185 179 182 169 169 229 287